This demonstration page uses our WeatherBlox Daily Observations layout. Learn more.

Left ArrowRight Arrow

38.88101, -77.10428

Hourly Observations for June 18, 2019

Temp ( °F °C ) Dew Point ( °F °C ) Humidity (%) Winds ( mph kmh ) Pressure ( in mb ) Visibility ( mi km ) Precip ( " mm )
12:52 am 00:52 Cloudy 74 23.3 71 21.7 91 91 S 3 6 29.98 1015 10 16 N/A
1:52 am 01:52 Cloudy 73 22.8 70 21.1 90 90 S 3 6 29.97 1015 10 16 N/A
2:52 am 02:52 Mostly Cloudy 73 22.8 70 21.1 90 90 N N/A 29.95 1014 10 16 N/A
3:52 am 03:52 Cloudy 73 22.8 70 21.1 90 90 N N/A 29.93 1014 10 16 N/A
4:52 am 04:52 Cloudy 73 22.8 70 21.1 90 90 S 3 6 29.93 1014 10 16 N/A
5:13 am 05:13 Cloudy 73 22.8 70 21.1 90 90 N N/A 29.94 1014 10 16 N/A
5:27 am 05:27 Cloudy 73 22.8 70 21.1 90 90 N N/A 29.94 1014 10 16 N/A
5:43 am 05:43 Cloudy 73 22.8 70 21.1 90 90 SSE 5 7 29.93 1013 10 16 N/A
5:52 am 05:52 Cloudy 73 22.8 70 21.1 90 90 S 5 7 29.93 1014 10 16 N/A
6:52 am 06:52 Mostly Cloudy 73 22.8 69 20.6 87 87 SSW 5 7 29.93 1014 10 16 N/A
7:52 am 07:52 Mostly Cloudy 74 23.3 70 21.1 88 88 N N/A 29.93 1014 10 16 N/A
8:52 am 08:52 Mostly Cloudy 75 23.9 71 21.7 88 88 S 5 7 29.93 1014 10 16 N/A
9:52 am 09:52 Mostly Cloudy 77 25 72 22.2 85 85 SSE 5 7 29.93 1014 10 16 N/A
11:52 am 11:52 Cloudy 79 26.1 73 22.8 82 82 SSE 10 17 29.94 1014 10 16 N/A
12:52 pm 12:52 Mostly Cloudy 80 26.7 73 22.8 79 79 S 12 19 29.93 1014 10 16 N/A
1:52 pm 13:52 Cloudy 84 28.9 68 20 59 59 W 10 17 29.92 1013 10 16 N/A
2:52 pm 14:52 Mostly Cloudy 86 30 70 21.1 59 59 SW 8 13 29.90 1012 10 16 N/A
3:52 pm 15:52 Mostly Cloudy 88 31.1 67 19.4 50 50 WSW 14 22 29.88 1012 10 16 N/A
4:52 pm 16:52 Mostly Cloudy 87 30.6 65 18.3 48 48 W 12 19 29.87 1012 10 16 N/A
5:52 pm 17:52 Mostly Cloudy 85 29.4 70 21.1 61 61 SSW 9 15 29.86 1011 10 16 N/A
6:12 pm 18:12 Mostly Cloudy with Thunderstorms 83 28.3 69 20.6 63 63 SSW 16 26 29.87 1011 10 16 N/A
6:18 pm 18:18 Mostly Cloudy with Strong Thunderstorms 80 26.7 71 21.7 74 74 SW 22 35 29.88 1012 3 4 0.01 0.25
6:21 pm 18:21 Cloudy with Strong Thunderstorms 77 25 71 21.7 82 82 WSW 21 33 29.89 1012 2 3 0.07 1.78
6:28 pm 18:28 Cloudy with Strong Thunderstorms 75 23.9 70 21.1 84 84 W 16 26 29.90 1012 2 3 0.12 3.05
6:30 pm 18:30 Cloudy with Strong Thunderstorms 75 23.9 69 20.6 82 82 W 14 22 29.90 1012 2 3 0.13 3.30
6:33 pm 18:33 Cloudy with Strong Thunderstorms 74 23.3 68 20 82 82 WNW 17 28 29.91 1013 2 3 0.16 4.06
6:41 pm 18:41 Cloudy with Thunderstorms 74 23.3 67 19.4 79 79 WNW 9 15 29.91 1013 3 4 0.21 5.33
6:52 pm 18:52 Cloudy with Thunderstorms 74 23.3 67 19.4 79 79 NW 9 15 29.91 1013 3 5 0.25 6.35
7:04 pm 19:04 Cloudy with Strong Thunderstorms 73 22.8 68 20 84 84 WNW 13 20 29.91 1013 3 4 0.05 1.27
7:09 pm 19:09 Cloudy with Strong Thunderstorms 73 22.8 68 20 84 84 WNW 10 17 29.91 1013 3 5 0.07 1.78
7:15 pm 19:15 Cloudy with Thunderstorms 73 22.8 68 20 84 84 WSW 10 17 29.92 1013 4 6 0.09 2.29
7:19 pm 19:19 Cloudy with Thunderstorms 74 23.3 69 20.6 85 85 SSW 12 19 29.92 1013 2 3 0.10 2.54
7:31 pm 19:31 Cloudy with Thunderstorms 72 22.2 68 20 87 87 SSW 13 20 29.92 1013 3 4 0.24 6.10
7:34 pm 19:34 Cloudy with Nearby Thunderstorms 73 22.8 68 20 84 84 SSW 12 19 29.92 1013 3 5 0.25 6.35
7:36 pm 19:36 Cloudy with Thunderstorms 73 22.8 68 20 84 84 SSW 9 15 29.91 1013 3 5 0.26 6.60
7:38 pm 19:38 Cloudy with Strong Thunderstorms 72 22.2 68 20 87 87 SSW 9 15 29.91 1013 3 4 0.27 6.86
7:46 pm 19:46 Cloudy with Nearby Thunderstorms 72 22 70 21 94 94 S 9 15 29.91 1013 4 6 0.30 7.62
7:52 pm 19:52 Cloudy with Nearby Thunderstorms 72 22.2 69 20.6 91 91 SSE 12 19 29.91 1013 9 14 0.31 7.87
7:58 pm 19:58 Mostly Cloudy with Rain 72 22.2 69 20.6 91 91 SSE 8 13 29.91 1013 7 11 0.01 0.25
8:52 pm 20:52 Cloudy with Heavy Rain 72 22.2 69 20.6 91 91 SSE 7 11 29.90 1013 5 8 0.06 1.52
9:03 pm 21:03 Cloudy with Heavy Rain 72 22.2 69 20.6 91 91 S 8 13 29.91 1013 3 4 0.06 1.52
9:06 pm 21:06 Cloudy with Light Rain 72 22.2 69 20.6 91 91 SSW 8 13 29.91 1013 3 5 0.09 2.29
9:12 pm 21:12 Cloudy with Light Rain 72 22.2 69 20.6 91 91 SSW 6 9 29.91 1013 9 14 0.09 2.29
9:20 pm 21:20 Cloudy with Heavy Rain 73 22.8 69 20.6 87 87 WSW 13 20 29.91 1013 2 2 0.11 2.79
9:25 pm 21:25 Cloudy with Heavy Rain 73 22.8 70 21.1 90 90 SW 9 15 29.91 1013 1 1 0.39 9.91
9:29 pm 21:29 Cloudy with Heavy Rain 73 22.8 70 21.1 90 90 SW 8 13 29.91 1013 1 2 0.49 12.45
9:33 pm 21:33 Cloudy with Rain 73 22.8 70 21.1 90 90 SSW 6 9 29.92 1013 3 4 0.52 13.21
9:35 pm 21:35 Cloudy with Rain 73 22.8 70 21.1 90 90 SSW 5 7 29.92 1013 4 6 0.52 13.21
9:47 pm 21:47 Cloudy with Light Rain 72 22 70 21 94 94 SW 3 6 29.92 1013 9 14 0.54 13.72
9:52 pm 21:52 Cloudy with Light Rain 73 22.8 69 20.6 87 87 S 6 9 29.91 1013 10 16 0.54 13.72
10:52 pm 22:52 Cloudy with Light Rain 73 22.8 69 20.6 87 87 S 6 9 29.91 1013 10 16 N/A
11:52 pm 23:52 Cloudy 73 22.8 70 21.1 90 90 S 6 9 29.91 1013 10 16 N/A

Powered by AerisWeather